Location: Lane
(33.5226°N, 79.8788°W)
Time: 20:45:10
(UTC+00:00)

Courier 1B Rocket - Pass Details

Date: 12 October 2022
Orbit: 920 x 1202 km, 28.3° (Epoch: 01 December)

Event Time Altitude Azimuth Distance (km) Brightness Sun altitude
Rises 00:02:17 0° 269° (W) 3,936 10.1 -15.7°
Reaches altitude 10° 00:05:15 10° 264° (W) 2,934 8.8 -16.3°
Maximum altitude 00:12:02 47° 193° (SSW) 1,344 5.8 -17.7°
Enters shadow 00:16:09 22° 131° (SE) 2,041 6.2 -18.6°
Drops below altitude 10° 00:18:22 10° 121° (ESE) 2,733 - -19.1°
Sets 00:21:02 0° 116° (ESE) 3,645 - -19.6°
